Cherry Point, NC

6:56 PM EST on December 16, 2017 (GMT -0500)
Cherry Point Marine Corps Air Station

Weather History for KNKT - April, 2013

Change the Weather History Date:

Saturday, April 27, 2013

  Actual Average Record
Temperature  
Mean Temperature 60 °F -  
Max Temperature 70 °F 71 °F 82 °F (2016)
Min Temperature 50 °F 51 °F 37 °F (2001)
Degree Days  
Heating Degree Days 5    
Growing Degree Days 10 (Base 50)    
Moisture  
Dew Point 46 °F    
Average Humidity 61    
Maximum Humidity 86    
Minimum Humidity 31    
Precipitation  
Precipitation 0.00 in - - ()
Sea Level Pressure  
Sea Level Pressure 30.34 in    
Wind  
Wind Speed 4 mph ()    
Max Wind Speed 16 mph    
Max Gust Speed 21 mph    
Visibility 10.0 miles    
Events      
Averages and records for this station are not official NWS values.
T = Trace of Precipitation, MM = Missing Value Source: Averaged Metar Reports

Daily Weather History Graph

Daily Weather History Graph

Search for Another Location

Airport or City:

Trip Planner

Search our weather history database for the weather conditions in past years. The results will help you decide how hot, cold, wet, or windy it might be!

Date:

Astronomy

Apr. 27, 2013 Rise Set
Actual Time 6:20 AM EDT 7:49 PM EDT
Civil Twilight 5:54 AM EDT 8:16 PM EDT
Nautical Twilight 5:22 AM EDT 8:48 PM EDT
Astronomical Twilight 4:48 AM EDT 9:22 PM EDT
Moon 10:12 PM EDT (4/27) 7:41 AM EDT (4/27)
Length of Visible Light 14h 22m
Length of Day
13h 28m
Waning Gibbous, 95% of the Moon is Illuminated
Apr 27
Waning Gibbous
May 2
Last Quarter
May 9
New
May 18
First Quarter
May 25
Full

Hourly Weather History & Observations

Time (EDT) Temp. Dew Point Humidity Pressure Visibility Wind Dir Wind Speed Gust Speed Precip Events Conditions
12:54 AM 51.1 °F 45.0 °F 80% 30.38 in 10.0 mi Calm Calm - N/A   Mostly Cloudy
1:54 AM 50.0 °F 45.0 °F 83% 30.36 in 10.0 mi Calm Calm - N/A   Mostly Cloudy
2:54 AM 51.1 °F 46.0 °F 83% 30.35 in 10.0 mi Calm Calm - N/A   Mostly Cloudy
3:54 AM 53.1 °F 48.0 °F 83% 30.36 in 10.0 mi Calm Calm - N/A   Mostly Cloudy
4:54 AM 53.1 °F 48.9 °F 86% 30.35 in 10.0 mi Calm Calm - N/A   Mostly Cloudy
5:54 AM 55.0 °F 51.1 °F 86% 30.35 in 10.0 mi North 3.5 mph - N/A   Mostly Cloudy
6:54 AM 55.9 °F 51.1 °F 84% 30.36 in 10.0 mi NE 3.5 mph - N/A   Mostly Cloudy
7:54 AM 59.0 °F 53.1 °F 81% 30.37 in 10.0 mi ENE 3.5 mph - N/A   Mostly Cloudy
8:54 AM 63.0 °F 53.1 °F 70% 30.38 in 10.0 mi NE 8.1 mph - N/A   Mostly Cloudy
9:54 AM 64.9 °F 48.0 °F 54% 30.38 in 10.0 mi ENE 10.4 mph - N/A   Scattered Clouds
10:54 AM 66.9 °F 46.9 °F 49% 30.38 in 10.0 mi East 8.1 mph - N/A   Clear
11:54 AM 68.0 °F 41.0 °F 37% 30.38 in 10.0 mi NE 12.7 mph - N/A   Scattered Clouds
12:54 PM 70.0 °F 37.9 °F 31% 30.35 in 10.0 mi NE 12.7 mph 20.7 mph N/A   Clear
1:54 PM 70.0 °F 43.0 °F 38% 30.34 in 10.0 mi ENE 12.7 mph - N/A   Clear
2:54 PM 69.1 °F 39.9 °F 35% 30.33 in 10.0 mi NE 16.1 mph - N/A   Clear
3:54 PM 69.1 °F 41.0 °F 36% 30.32 in 10.0 mi NE 12.7 mph 19.6 mph N/A   Partly Cloudy
4:54 PM 69.1 °F 43.0 °F 39% 30.32 in 10.0 mi NE 10.4 mph - N/A   Scattered Clouds
5:54 PM 66.9 °F 42.1 °F 40% 30.32 in 10.0 mi NE 10.4 mph - N/A   Mostly Cloudy
6:54 PM 64.9 °F 42.1 °F 43% 30.31 in 10.0 mi East 6.9 mph - N/A   Mostly Cloudy
7:54 PM 61.0 °F 42.1 °F 50% 30.32 in 10.0 mi East 6.9 mph - N/A   Mostly Cloudy
8:54 PM 57.9 °F 46.0 °F 65% 30.32 in 10.0 mi ESE 5.8 mph - N/A   Mostly Cloudy
9:54 PM 55.0 °F 46.0 °F 72% 30.32 in 10.0 mi ESE 4.6 mph - N/A   Mostly Cloudy
10:54 PM 55.0 °F 46.9 °F 74% 30.32 in 10.0 mi Calm Calm - N/A   Mostly Cloudy
11:54 PM 54.0 °F 46.0 °F 75% 30.30 in 10.0 mi ENE 3.5 mph - N/A   Mostly Cloudy